Regional Weather Roundup
Issued by NWS Charleston, SC

Current Version | Previous Version | Text Only | Print | Product List | Glossary Off
Versions: 1 2 3 4 5 6 7 8 9 10 11 12 13 14 15 16 17 18 19 20 21 22 23 24 25 26 27 28 29 30 31 32 33 34 35 36 37 38 39 40 41 42 43 44 45 46 47 48 49 50

000
ASUS42 KCHS 211327
RWRCHS

REGIONAL WEATHER ROUNDUP
NATIONAL WEATHER SERVICE CHARLESTON SC
800 AM EST SAT JAN 21 2017

NOTE: "FAIR" INDICATES FEW OR NO CLOUDS BELOW 12,000 FEET WITH NO
SIGNIFICANT WEATHER AND/OR OBSTRUCTIONS TO VISIBILITY.

NOT ALL STATIONS ARE QUALITY CONTROLLED. USE DATA WITH CAUTION...
ESPECIALLY DEWPOINT OBSERVATIONS.

SCZ027-030-031-034>040-042>050-211400-
...SOUTHEAST SOUTH CAROLINA...

CITY           SKY/WX    TMP DP  RH WIND       PRES   REMARKS
N CHARLESTON   CLOUDY    65  63  93 S6        29.90R
WATERFRONT PRK   N/A     63  62  97 VRB2      29.88R
MOUNT PLEASANT CLOUDY    66  64  94 CALM      29.90R
JOHNS ISLAND   CLOUDY    64  63  94 SW6       29.91R
PINOPOLIS        N/A     61  61 100 CALM      29.80R
MONCKS CORNER  CLOUDY    63  61  94 CALM      29.89S
SUMMERVILLE    CLOUDY   N/A N/A N/A CALM      29.90R
BEAUFORT MCAS  CLOUDY    65  63  93 S3        29.89R
BEAUFORT ARPT  CLOUDY    64  63  94 S3        29.88S FOG
HILTON HEAD IS CLOUDY    64  64 100 S7        29.90S
WALTERBORO     CLOUDY    64  63  94 CALM      29.89R
ALLENDALE      CLOUDY    64  64 100 CALM      29.86S FOG

...SOUTHERN MIDLANDS AND PEE DEE...

CITY           SKY/WX    TMP DP  RH WIND       PRES   REMARKS
GEORGETOWN     RAIN      63  61  94 CALM      29.91R
KINGSTREE      FAIR      59  57  94 CALM      29.89F
ORANGEBURG     FOG       61  61 100 E3        29.87F VSB 1/4
BARNWELL       FOG       64  64 100 SE3       29.86S VSB<1/4
AIKEN          FOG       59  59 100 CALM      29.89R VSB<1/4
MANNING        CLOUDY    59  57  94 CALM      29.88F FOG
COLUMBIA       FOG       60  59  96 E3        29.85F VSB<1/4
SUMTER         CLOUDY    58  58  97 CALM      29.86S
FLORENCE       FOG       58  58 100 E3        29.89F VSB 1
MYRTLE BEACH   CLOUDY    61  57  88 CALM      29.92R
N MYRTLE BEACH CLOUDY    57  57 100 CALM      29.91R FOG

$$

GAZ063-065-086>088-099>101-113>116-118-119-134>141-150-211400-
...SOUTHEAST GEORGIA...

CITY           SKY/WX    TMP DP  RH WIND       PRES   REMARKS
SAVANNAH ARPT  LGT RAIN  67  64  90 S8        29.88S
HUNTER AAF     CLOUDY    66  66 100 S5        29.86S
FORT STEWART   CLOUDY    66  66 100 CALM      29.85F
STATESBORO     TSTM      66  32  27 SE5       29.86S
SYLVANIA       TSTM     N/A N/A N/A CALM      29.88R
CLAXTON        RAIN     N/A N/A N/A CALM      29.86F

...CSRA...CENTRAL AND FAR SOUTHEAST GEORGIA...

CITY           SKY/WX    TMP DP  RH WIND       PRES   REMARKS
THOMSON        CLOUDY    64  64 100 CALM      29.89R
AUGUSTA-BUSH   FOG       64  61  90 SE5       29.85S VSB 1/2
AUGUSTA-DANIEL FOG       63  60  90 SE6       29.86R VSB 1/2
SWAINSBORO     CLOUDY    66  64  94 CALM      29.86R FOG
VIDALIA        CLOUDY    68  68 100 SE5       29.85S FOG
EASTMAN        CLOUDY    68  68 100 CALM      29.88S FOG
HAZLEHURST     FAIR      69  69 100 S5        29.84R FOG
ALMA           CLOUDY    69  69 100 S5        29.85R
WAYCROSS       CLOUDY    73  73 100 S9        29.86R
JESUP          CLOUDY    70  66  88 S6        29.87S FOG
BAXLEY         CLOUDY    70  70 100 SE3       29.86R FOG
BRUNSWICK      CLOUDY    70  70 100 S6        29.90S
SAINT SIMONS   CLOUDY    66  65  96 SE7       29.89S FOG

$$

SCZ027-028-034-036>038-045-046-048>050-GAZ119-141-211400-
...LAKE AND SUPPLEMENTAL COASTAL OBSERVATIONS...

STATION/POSITION TIME  TEMP    WIND        PRES    WAVE   SWELL
                       AIR SEA DIR/SP/G            HT/PER HT/PER/DIR
                 (UTC) (F)     (DEG/KT/KT) (MB)    (FT/S) (FT/S/D)
WINYAH BAY       1230   62        CALM     1012.0S
LAKE MURRAY      1220   59      CALM  /  2 1010.8F
ACE BASIN NERRS  1245   62        CALM     1012.0S
FORT PULASKI     1300   63 58  170/  4/  5 1012.3
SAPELO ISLAND    1300   67     160/  5     1012.0

$$

ANZ835-935-AMZ111-154-330-350-352-354-370-450-454-472-211400-
...C-MAN AND BUOY OBSERVATIONS...

STATION/POSITION TIME  TEMP    WIND        PRES    WAVE   SWELL
                       AIR SEA DIR/SP/G            HT/PER HT/PER/DIR
                 (UTC) (F)     (DEG/KT/KT) (MB)    (FT/S) (FT/S/D)
BUOY 41004       1250   69 67  240/ 12/ 16 1011.9R   2/11   2/110/11
BUOY 41008       1250   63 61  200/  6/  8 1012.3F   2/13   2/ 20/13
FOLLY BEACH CMAN 1300   61     220/  5/  7 1012.8S
CAPERS NEARSHORE 1308   59 56  240/  8/ 10 1012.2R
FRIPP NEARSHORE  1308   61 59  200/  8/ 10 1012.1R


STATION/POSITION TIME  TEMP    WIND        PRES    WAVE   SWELL
                       AIR SEA DIR/SP/G            HT/PER HT/PER/DIR
                 (UTC) (F)     (DEG/KT/KT) (MB)    (FT/S) (FT/S/D)
5E ST. MARYS GA  1300      63                N/A     2/13   2/ 90/13
FRYING PAN BUOY  1300   68 69   50/  6/  8 1012.5
BUOY 41025       1250   58 74   30/ 10/ 14 1013.6R   4/11   3/ 60/11
CAPE LOOKOUT NC  1300   57      50/  9/ 10 1013.2R
BUOY 41002       1250   72 71  320/  8/ 10 1013.7R   6/ 6   5/260/ 6
BUOY 41010       NOT AVBL
ST AUGUSTINE FL  1300   65 63  230/  6/  8 1013.8R


$$




USA.gov is the U.S. government's official web portal to all federal, state and local government web resources and services.